Tracking 18624 objects as of 27-April-2017
HD Live streaming from Space Station
objects crossing your sky now

TANSUO 2

Track TANSUO 2 now!
10-day predictions
TANSUO 2 is classified as:


NORAD ID: 28479
Int'l Code: 2004-046A
Perigee: 691.7 km
Apogee: 704.5 km
Inclination: 98.2 °
Period: 98.6 minutes
Semi major axis: 7069 km
RCS: 1.44 m2 (large)
Launch date: November 18, 2004
Source: People's Republic of China (PRC)
Launch site: Xichang Space Center, China (XSC)
Your satellite tracking list
Your tracking list is empty





NASA's NSSDC Master Catalog

Two Line Element Set (TLE):
1 28479U 04046A   17116.87545486 +.00000188 +00000-0 +48344-4 0  9991
2 28479 098.2162 134.5110 0009043 291.4970 068.5266 14.60680117662037
Source of the keplerian elements: AFSPC